Wind_Speed
33 34 40 43 45 45 43 41 39 37 35 31 28 29 30 30 30 31 28 25 23 22 25 27 27 27 24 23 21 18 19 22 23 23 24 24 23 24 22 21 21 19 15 14 18 21 23 24 23 24 25 25 26 27 27 27 27 27 26 26 25 24 24 24 23 22 20 18 16 15 13 12 12 13 12 12 12 13 13 13 13 13 13 12 10 9
34 40 46 46 45 42 40 39 37 36 35 33 29 26 28 31 33 34 31 27 22 21 26 28 28 27 24 21 20 19 19 21 23 24 25 25 25 23 22 21 21 21 18 17 19 22 24 25 25 26 27 27 28 28 29 28 28 28 28 27 26 26 26 25 23 21 19 17 15 13 11 11 11 11 11 10 10 11 12 13 14 13 13 12 11 9
37 45 49 44 41 39 38 37 37 35 33 34 32 27 29 33 34 33 32 30 24 23 27 28 29 30 26 23 22 21 20 19 19 21 24 26 27 25 22 20 20 23 22 18 19 21 24 26 27 28 29 29 29 29 29 29 29 29 29 28 28 28 27 25 23 21 18 17 16 15 13 13 13 12 12 11 11 12 13 14 14 13 13 13 12 10
39 43 46 42 38 38 38 37 36 34 33 34 34 34 36 36 32 26 24 25 21 21 24 24 28 33 31 29 29 26 22 19 17 19 23 27 29 27 25 23 22 23 23 20 19 22 24 26 27 29 30 31 30 30 30 30 30 30 30 29 29 28 27 26 24 21 19 19 18 17 16 16 16 15 15 15 15 15 15 14 13 13 13 13 12 11
41 38 36 37 39 38 37 38 37 33 33 35 38 40 39 37 34 28 22 21 18 16 18 17 20 30 34 32 32 30 25 21 18 18 22 26 29 29 28 28 25 23 24 22 20 21 23 24 26 28 30 31 31 31 31 31 31 30 29 29 28 28 27 25 23 21 21 21 21 20 19 19 18 16 15 12 12 13 13 13 12 11 13 13 13 12
43 39 29 25 34 40 38 38 40 37 33 34 40 44 40 36 35 32 26 22 17 16 19 16 12 20 30 30 28 26 26 24 21 20 22 23 25 28 30 29 27 25 25 24 22 21 23 24 26 27 29 30 31 31 31 31 30 30 29 29 28 28 27 26 24 23 23 23 22 21 20 19 16 12 8 5 5 7 9 11 11 11 12 13 13 11
42 42 34 22 22 32 39 40 41 39 31 30 39 41 38 34 32 29 26 20 13 13 19 16 10 14 24 29 26 21 22 23 23 22 21 20 21 25 28 28 28 27 26 25 25 23 24 25 25 26 27 29 29 30 30 31 31 30 29 29 29 28 28 26 25 25 25 24 23 22 20 18 15 11 8 6 6 6 8 11 12 13 12 12 12 12
42 40 41 34 23 22 35 42 41 40 31 29 39 38 34 32 32 31 27 21 17 17 21 20 16 17 26 36 33 23 21 21 22 24 21 18 18 20 23 25 27 28 27 26 26 26 24 24 24 23 24 25 25 28 30 31 31 30 30 29 29 29 28 28 27 27 26 24 23 21 20 18 16 13 12 11 10 9 9 11 12 14 14 13 13 13
43 39 40 41 35 27 32 38 38 40 35 30 36 35 31 27 27 28 24 21 20 19 22 23 20 17 25 40 40 30 29 27 26 27 23 19 17 17 19 20 23 27 28 27 27 27 25 22 21 21 22 22 24 28 30 30 30 30 29 29 29 29 29 28 28 27 26 24 23 22 21 18 16 15 14 15 14 12 11 11 12 14 15 14 14 14
40 38 35 37 40 37 34 32 31 35 36 34 32 27 22 20 19 20 17 17 16 16 21 22 20 16 21 36 40 35 35 35 33 30 25 21 18 17 18 18 20 24 28 29 28 28 28 23 20 20 22 23 25 27 28 30 31 30 30 30 29 29 29 29 28 28 26 25 24 23 21 19 17 16 16 16 16 15 14 13 13 14 15 15 14 14
41 35 32 33 37 37 35 32 29 29 31 33 31 21 14 15 16 15 15 15 12 15 22 24 22 16 17 30 39 42 42 37 35 31 27 24 21 19 18 16 18 22 26 30 30 30 30 27 24 23 24 24 26 28 29 31 32 32 32 31 30 30 30 30 29 28 27 26 25 23 21 20 18 18 17 17 16 16 16 15 14 14 15 16 15 14
43 35 32 33 32 29 31 35 33 28 25 26 27 23 15 13 14 14 14 14 11 11 15 20 22 19 19 24 28 37 43 38 34 33 30 26 23 21 18 14 15 19 24 28 30 31 31 30 28 26 25 25 26 29 30 32 32 33 33 32 31 31 31 31 30 30 28 27 26 23 22 21 20 20 19 18 17 16 16 16 15 15 16 17 17 15
42 41 36 32 30 27 26 30 34 33 28 25 24 24 18 9 8 11 9 9 12 9 5 9 14 20 28 32 31 35 40 37 34 33 31 28 24 22 19 14 12 14 19 25 29 31 32 33 31 29 26 25 26 28 30 32 33 33 33 33 33 32 32 32 31 31 30 28 27 25 23 22 22 21 21 20 19 18 18 17 17 17 16 17 17 16
31 37 40 35 30 30 29 28 30 33 33 31 27 25 21 10 6 9 8 5 9 9 7 10 13 16 24 33 38 40 40 39 38 34 31 30 27 24 20 16 14 14 16 22 27 31 33 33 32 30 28 26 26 27 28 31 32 33 33 33 33 33 32 32 32 32 31 29 28 26 24 24 23 23 22 22 21 20 19 19 18 18 17 16 16 17
22 23 38 43 36 34 34 34 31 28 30 33 30 27 23 18 11 6 6 6 5 3 9 15 15 12 15 21 26 26 26 30 35 36 33 31 28 25 22 19 18 18 17 18 21 27 32 33 32 30 30 29 27 26 27 29 31 32 32 32 33 32 33 33 33 33 32 31 29 27 26 26 25 25 24 23 23 22 21 20 19 18 17 16 15 17
27 22 32 38 38 38 34 33 33 25 24 29 31 30 27 27 22 8 3 8 6 2 6 15 17 19 23 29 30 26 25 26 29 32 33 33 31 27 24 23 21 20 19 18 17 20 25 31 33 32 31 31 30 28 27 28 29 31 32 32 32 31 31 32 32 32 32 31 30 29 28 27 27 26 25 24 24 23 22 21 21 20 19 17 16 17
23 24 31 28 28 35 32 31 32 27 24 25 29 33 30 29 27 15 6 6 6 6 6 13 21 26 27 31 34 33 33 33 32 32 32 33 33 31 28 25 22 21 20 17 16 15 18 24 30 33 32 31 31 31 29 28 28 29 31 32 32 32 31 31 31 31 31 31 31 30 29 29 28 27 26 25 24 24 24 23 22 21 20 19 17 18
19 19 28 28 24 26 29 30 29 28 28 25 26 32 28 20 22 20 10 5 7 7 6 12 20 22 18 19 27 33 36 38 39 37 35 34 33 33 32 27 24 21 18 17 17 17 17 18 23 29 33 33 31 30 29 28 29 29 29 30 30 32 32 31 31 31 31 32 32 31 31 30 29 28 28 27 26 26 26 25 24 23 22 20 18 19
24 17 16 21 23 22 26 30 27 29 32 28 27 29 23 15 17 22 14 6 8 7 5 9 15 20 23 21 18 19 23 29 35 38 38 35 33 32 31 28 25 22 19 18 17 16 15 14 16 22 28 32 32 30 29 29 30 30 30 29 29 29 29 30 31 32 32 32 32 32 32 32 31 31 30 30 29 29 28 26 25 24 23 21 20 20
25 20 11 13 18 18 24 31 30 31 33 32 29 25 22 18 17 24 22 10 7 7 5 5 7 16 30 34 29 24 18 14 17 24 31 35 35 34 31 28 25 22 19 17 15 14 14 14 15 17 21 27 31 31 30 30 31 32 31 31 30 28 27 28 29 30 30 31 32 32 33 33 33 33 33 32 32 31 31 29 27 26 24 23 23 22
26 21 15 13 17 20 26 32 32 33 36 37 33 24 24 23 15 17 24 21 12 7 4 6 7 8 14 19 22 24 23 19 14 13 18 25 31 33 33 32 29 25 21 18 16 15 14 15 14 15 17 21 27 31 32 32 32 32 32 31 30 30 29 28 28 27 26 27 28 29 30 32 34 35 35 35 34 34 33 31 29 27 26 25 25 24
31 25 18 15 18 22 26 26 25 28 33 37 36 32 30 27 19 12 15 24 24 14 7 6 9 9 8 10 9 8 11 17 19 18 17 20 25 29 31 31 30 29 25 21 19 18 19 19 17 16 17 18 22 28 33 35 33 33 33 32 31 30 30 30 29 28 26 25 24 25 26 28 30 32 33 34 34 34 34 32 30 28 26 26 26 26
33 29 23 18 17 19 20 21 21 23 30 34 36 38 35 30 28 19 11 18 24 20 14 10 11 15 17 18 16 13 9 8 12 18 20 19 19 21 23 25 25 27 27 25 24 23 23 22 19 17 17 18 20 22 28 34 35 34 34 33 32 31 30 30 30 28 27 26 25 24 24 24 25 27 29 30 31 32 31 31 30 28 27 27 27 27
29 26 25 21 17 16 16 18 22 25 32 36 36 38 38 35 35 32 22 19 19 18 18 12 10 13 12 9 9 11 11 10 9 12 16 19 19 18 19 21 21 23 25 26 26 24 21 19 16 14 15 18 20 20 23 27 32 34 35 35 34 32 29 29 29 28 28 27 26 25 25 25 25 25 26 27 27 28 28 28 28 27 27 27 28 28
19 20 23 18 12 14 15 16 22 27 30 34 34 36 40 41 40 37 31 24 19 21 23 17 11 10 8 6 4 3 6 10 10 10 13 16 20 21 20 19 20 21 23 24 23 21 19 18 15 10 11 16 20 22 22 23 26 31 34 35 34 31 29 29 29 28 28 27 26 26 26 26 25 26 26 26 26 26 26 27 27 26 27 27 29 29
13 14 20 18 10 11 11 11 18 24 24 27 32 35 38 41 40 37 33 26 21 22 27 26 18 8 6 8 7 5 6 7 8 9 9 10 14 19 21 22 22 22 22 22 20 18 17 18 17 13 10 12 18 23 26 25 26 28 30 32 33 31 30 29 29 29 28 28 28 27 27 26 26 26 25 25 25 25 25 26 26 26 26 27 29 30
10 10 16 20 16 11 8 9 17 24 24 23 27 31 34 36 38 38 35 30 26 24 29 37 31 18 15 14 11 10 10 9 8 8 8 9 10 12 16 18 20 21 20 21 20 20 20 20 21 18 14 11 14 21 26 28 28 28 29 30 31 30 29 29 29 29 29 29 29 28 28 27 26 26 26 25 24 24 25 25 25 25 26 27 30 32
6 6 9 14 14 13 13 12 15 20 23 23 25 29 31 31 33 37 36 33 31 26 28 40 39 32 32 27 19 17 13 11 11 9 10 12 11 10 12 13 16 17 18 21 22 23 23 23 23 21 16 12 13 19 25 28 29 28 29 29 29 29 29 29 30 30 31 31 31 30 29 28 27 27 26 26 25 25 25 25 25 25 26 27 30 32
4 2 5 8 9 11 14 15 14 16 19 21 24 29 32 31 31 33 34 36 39 35 33 39 38 39 44 40 35 31 24 20 19 16 15 15 13 11 11 12 13 14 15 18 21 23 24 26 26 23 18 14 15 20 25 28 29 29 29 30 30 30 29 30 31 31 32 33 33 32 30 28 28 27 27 27 27 27 27 26 26 25 26 27 29 32
4 3 5 8 10 9 10 13 16 17 18 22 24 27 31 33 32 30 31 37 41 42 44 43 39 41 45 44 43 42 36 34 32 27 22 19 16 15 14 16 18 19 17 15 16 18 21 25 26 25 21 17 18 21 24 27 28 29 31 31 31 32 32 32 33 33 34 34 34 33 31 29 29 29 29 29 29 29 29 28 27 26 27 28 29 31
5 5 7 9 11 12 10 9 13 16 19 23 27 29 30 31 33 33 32 34 35 38 44 45 44 48 47 41 40 40 38 38 37 33 30 27 26 26 26 26 25 23 20 16 15 14 16 20 24 25 23 19 18 21 24 25 26 28 31 32 31 32 32 33 35 35 34 34 33 33 31 30 29 30 30 30 30 31 31 30 29 28 28 28 29 30
8 8 9 9 10 13 11 9 12 16 19 23 29 34 34 33 34 33 33 33 32 33 38 41 44 49 45 38 36 36 35 36 37 38 38 36 35 34 33 32 28 23 21 21 19 15 13 16 20 21 22 20 20 22 24 25 26 27 30 31 31 32 33 34 35 34 34 34 34 33 32 30 30 31 31 31 32 32 32 32 32 31 30 29 29 30
11 10 9 7 9 12 12 11 10 12 14 18 22 30 37 39 38 36 35 35 31 30 34 37 40 44 42 37 37 36 35 34 36 38 39 37 36 35 34 33 29 24 22 23 24 20 14 14 17 19 21 21 20 21 23 25 27 27 28 29 30 31 33 33 33 34 34 33 33 33 31 30 30 30 31 31 31 32 33 34 35 34 33 31 30 31
12 11 10 9 9 10 13 13 11 10 10 9 10 18 26 30 35 41 43 41 37 33 33 32 34 37 36 33 33 34 33 33 33 34 34 33 33 33 32 31 29 26 23 24 26 25 19 15 15 17 20 21 20 22 24 27 29 29 30 30 30 31 31 31 31 31 31 31 31 31 30 29 29 29 30 30 31 32 33 34 36 36 35 34 33 33
13 11 11 11 10 10 12 12 8 8 9 8 10 13 12 12 20 31 37 40 42 42 41 39 37 34 30 28 26 25 27 29 31 31 30 30 30 31 31 31 30 27 24 24 27 28 24 19 16 17 19 21 21 23 27 29 30 31 32 32 31 30 29 29 29 29 29 30 31 30 30 29 28 28 29 30 31 32 33 34 36 37 37 37 36 36
13 11 10 11 11 9 8 9 10 7 3 10 12 10 9 11 15 18 22 27 30 32 36 39 40 38 35 30 24 21 22 26 30 30 30 29 29 29 30 30 28 24 23 24 27 29 26 21 18 17 20 22 22 23 25 29 32 32 32 32 32 31 28 27 27 28 28 28 29 30 29 27 27 27 28 29 31 33 34 35 35 36 38 38 38 37
16 15 14 13 13 12 12 15 19 16 12 14 16 11 11 16 16 17 20 22 23 25 27 29 30 33 36 33 26 22 21 24 29 31 29 28 28 28 28 27 25 23 22 24 27 29 27 23 19 17 20 22 24 25 26 29 33 34 32 32 32 30 28 27 26 27 28 28 28 28 26 25 25 27 28 30 33 34 34 35 35 36 38 38 39 39
20 19 19 17 16 17 16 15 16 15 13 16 18 16 16 17 15 16 19 21 24 28 29 29 27 26 28 30 29 27 26 29 31 29 25 24 24 26 26 24 22 20 19 21 24 28 28 23 19 17 19 21 24 27 30 31 32 35 33 31 31 30 29 27 25 26 28 29 30 27 25 26 27 26 27 30 34 35 34 35 35 35 36 37 39 39
25 24 24 23 19 18 19 16 14 13 9 8 10 13 16 14 14 15 17 19 24 28 29 30 29 25 24 26 29 31 33 35 32 25 21 21 21 22 25 23 20 18 16 17 21 25 24 21 18 18 19 21 22 26 29 31 31 34 33 31 31 32 32 30 28 27 28 29 30 27 26 27 28 27 26 27 29 30 31 32 33 34 35 36 38 38
27 29 30 29 25 21 21 19 18 18 16 14 13 11 12 11 11 12 10 8 14 22 27 29 28 27 25 24 27 31 35 35 30 23 20 21 21 22 23 22 19 17 15 14 17 20 20 18 19 19 19 20 22 24 26 27 29 34 35 33 33 32 31 31 30 29 29 28 28 29 27 24 25 27 27 25 24 25 25 26 28 30 32 34 36 38
20 26 30 32 30 25 22 22 21 20 22 26 23 18 17 15 11 12 12 7 6 12 17 21 25 28 28 26 27 30 32 30 27 24 22 22 22 22 22 20 19 18 17 15 15 18 20 20 21 21 19 18 19 22 24 25 26 29 32 32 32 30 29 29 28 29 30 29 28 29 28 25 25 27 28 26 25 24 24 24 25 26 28 29 31 34
12 17 23 29 30 26 23 22 20 18 23 29 28 24 24 20 13 15 17 16 17 17 15 15 18 22 26 28 27 27 28 28 27 26 24 24 24 23 22 21 20 20 20 18 15 18 22 23 23 23 22 20 19 20 23 25 25 25 26 27 28 28 28 28 28 28 29 30 30 30 28 28 30 31 30 29 27 27 27 27 26 26 27 28 29 31
11 13 16 23 26 25 22 19 15 13 20 28 30 30 29 25 21 22 21 21 23 24 20 19 19 19 22 24 26 27 28 28 29 27 25 26 26 26 24 23 22 21 21 19 17 18 21 25 26 25 25 25 23 22 22 24 25 26 26 25 25 25 26 26 27 27 29 32 35 35 33 32 34 35 34 32 30 30 30 29 27 27 28 30 32 33
13 13 14 17 20 21 21 20 16 9 10 17 26 33 33 29 26 25 23 24 25 24 22 23 24 25 25 23 25 28 28 28 29 28 26 28 29 27 26 24 23 22 21 20 19 18 20 24 27 28 27 28 28 27 25 24 25 26 26 26 26 26 26 26 27 28 30 31 33 33 33 35 37 38 36 35 34 33 33 32 31 30 30 31 33 34
11 13 13 14 18 21 24 25 22 13 8 11 20 30 35 35 31 26 24 24 26 25 24 23 24 27 28 27 26 28 27 28 29 28 27 29 29 28 27 26 25 24 23 23 22 20 20 23 25 26 26 26 27 27 26 25 26 26 26 26 27 26 27 26 26 26 27 28 28 28 29 32 35 36 36 36 37 37 37 37 37 36 36 36 36 36
15 16 16 17 18 22 28 33 29 20 15 17 20 27 34 38 36 30 24 23 24 25 25 25 25 26 28 28 28 28 28 28 28 28 28 29 30 29 29 28 27 27 26 25 24 23 23 23 23 22 21 21 22 22 22 23 24 24 24 24 24 24 25 25 24 24 24 24 25 26 27 29 31 33 35 35 37 38 39 40 41 42 42 42 43 43
18 19 20 22 22 22 26 32 33 26 20 19 22 28 34 39 39 32 24 22 23 24 25 26 26 27 29 30 30 30 29 28 28 29 29 30 32 32 31 31 30 29 28 27 26 25 24 24 23 21 20 19 19 19 19 20 20 21 21 22 22 23 23 24 24 24 24 24 25 26 27 29 30 32 34 36 37 39 40 42 43 45 47 48 49 50
16 18 20 23 26 27 26 26 29 29 25 23 26 30 34 37 40 36 27 22 21 22 25 28 29 30 31 32 34 35 32 28 27 29 30 31 33 33 32 31 30 29 28 27 26 25 24 23 22 22 21 20 19 19 19 20 20 20 21 22 23 24 24 25 25 26 26 27 27 28 29 30 32 34 36 38 39 41 43 44 46 48 49 50 51 53
17 21 23 23 26 31 32 29 26 24 21 22 27 32 32 33 37 37 31 25 22 19 22 27 30 31 29 28 31 34 32 27 27 29 31 32 33 32 32 31 30 29 28 27 26 25 25 24 23 23 22 22 22 22 22 22 22 23 23 24 25 26 27 27 28 29 30 30 31 32 33 34 36 37 39 41 42 44 46 47 49 51 53 54 54 55
20 23 22 21 25 32 35 32 26 23 20 19 23 28 28 30 35 37 33 27 22 17 19 23 26 28 26 25 27 30 30 31 32 32 33 33 32 31 30 29 29 28 27 26 25 25 25 25 25 24 25 25 25 25 26 25 26 27 27 28 28 29 29 30 31 32 33 34 35 36 37 39 40 41 42 45 46 48 49 50 51 52 54 55 56 56
23 24 21 22 28 35 38 34 29 29 24 17 17 23 28 30 34 37 33 26 21 15 16 19 23 26 26 28 31 32 33 34 34 33 32 32 31 30 29 28 28 27 27 27 26 26 26 26 26 25 25 24 24 24 24 24 25 25 26 26 27 28 28 29 30 31 33 34 36 37 39 41 42 44 46 48 49 51 52 52 52 53 53 54 56 57
Wind_Direction
210 215 218 217 217 217 217 220 223 226 228 230 232 233 235 239 241 242 243 245 249 255 257 258 267 273 279 285 289 291 283 275 268 257 249 247 246 244 242 241 238 232 231 229 220 211 206 205 205 204 203 203 203 202 201 200 200 200 200 200 199 198 201 203 203 203 204 205 205 205 206 207 209 213 217 220 220 220 220 221 224 225 223 224 224 220
216 221 223 222 221 221 221 223 226 229 230 232 234 235 238 240 242 243 242 243 247 256 258 259 266 269 272 278 282 280 274 270 269 265 259 252 247 245 242 240 238 232 226 225 220 213 208 205 205 206 205 205 205 205 204 203 201 201 202 201 200 200 202 204 204 204 206 206 205 204 204 205 207 211 215 219 220 221 222 223 225 225 223 224 225 223
221 226 227 226 224 224 224 225 227 230 231 232 234 237 239 239 242 244 246 246 248 256 260 263 268 269 269 271 271 271 271 273 270 267 266 261 252 248 248 245 236 230 226 223 220 215 210 207 206 208 207 206 206 207 207 205 203 203 203 201 201 202 202 203 204 204 204 205 206 206 206 208 209 211 213 215 217 218 219 220 222 222 221 222 223 223
221 229 231 227 225 224 224 225 226 227 229 231 232 234 236 238 240 243 248 250 249 255 261 266 271 270 268 268 267 267 270 274 271 264 263 261 255 251 252 250 240 231 227 225 223 218 212 210 210 210 210 208 207 208 207 206 205 204 203 202 203 204 203 203 203 202 203 205 207 206 205 207 208 209 211 213 217 219 218 220 221 219 218 219 221 221
219 227 232 228 225 224 223 224 224 224 226 230 231 232 235 238 239 241 246 249 249 252 256 267 279 273 267 266 267 266 265 268 268 264 259 256 254 251 249 248 244 235 229 227 228 224 218 215 215 214 212 211 210 210 209 207 206 205 204 204 205 206 206 204 203 202 204 206 207 206 204 205 206 208 210 213 219 224 224 226 225 220 218 219 220 219
223 226 230 228 225 224 223 224 224 223 225 230 233 233 235 239 243 245 249 253 260 261 256 263 281 274 266 263 265 263 258 259 264 266 262 256 254 251 249 248 244 237 230 227 228 229 225 220 218 216 214 214 214 213 211 209 207 206 205 206 207 208 208 206 203 204 207 208 207 207 206 208 209 207 202 198 212 226 228 230 229 225 222 220 220 218
227 228 227 226 227 225 222 224 225 223 222 229 235 235 235 240 244 246 248 252 261 264 259 257 258 274 274 265 261 260 255 253 256 261 262 257 253 250 249 248 244 239 233 227 225 226 226 223 221 221 218 217 217 215 212 210 208 207 206 207 208 209 208 206 204 205 208 209 209 208 209 212 215 212 201 189 198 213 220 223 226 226 224 222 219 216
227 225 225 227 229 226 223 224 226 222 220 230 237 237 237 239 242 244 247 251 256 265 267 259 254 274 277 266 258 252 250 249 247 251 256 254 251 249 248 247 244 240 236 231 227 226 227 225 224 225 223 222 220 217 214 212 209 208 208 208 209 209 209 206 205 207 209 211 211 211 212 215 217 215 211 206 202 204 211 217 222 224 224 221 218 213
228 224 225 227 224 224 226 227 228 224 220 229 237 239 240 240 243 245 246 250 257 265 265 254 247 257 267 264 261 254 250 249 246 246 250 254 257 256 251 248 246 242 237 234 229 227 229 229 227 226 225 223 221 218 216 214 211 210 210 210 210 210 208 206 206 209 211 213 214 214 216 218 219 218 218 218 214 210 214 216 219 222 223 222 217 211
231 230 232 231 226 228 234 232 231 227 223 228 236 239 241 239 239 240 237 245 255 255 252 246 237 241 261 262 260 257 253 247 245 245 247 254 264 269 262 254 249 245 240 236 232 228 228 230 229 226 224 222 220 218 216 214 212 211 210 210 210 209 208 208 209 211 213 215 216 217 218 220 221 223 224 226 225 222 224 225 225 225 225 226 222 214
232 234 234 233 232 237 242 238 232 229 227 231 233 229 227 228 227 231 234 241 255 253 246 243 235 235 265 264 257 254 251 246 246 246 248 254 260 267 268 260 251 246 242 239 234 230 227 226 227 225 223 221 219 218 215 213 212 211 211 210 210 210 210 211 212 214 215 217 219 220 221 223 224 227 229 232 233 232 233 236 237 236 233 232 230 221
229 232 233 233 235 238 241 240 238 234 227 228 229 221 217 223 224 231 236 233 244 253 242 240 237 232 245 257 257 253 250 247 247 246 246 251 255 260 266 267 258 250 246 242 238 233 227 224 224 222 221 219 218 218 215 214 213 213 212 211 211 212 213 214 215 216 218 219 221 222 223 225 226 229 232 234 236 237 237 238 240 241 239 239 238 230
226 227 232 236 237 233 229 231 234 233 226 219 217 213 210 209 214 222 220 222 238 245 225 225 231 231 238 247 254 256 253 248 244 244 246 247 251 259 263 266 264 255 248 243 239 235 230 226 224 222 220 217 217 218 217 217 216 216 216 215 215 215 216 218 218 219 220 222 224 225 226 227 228 230 232 234 236 237 238 237 237 240 243 244 243 239
223 227 230 231 234 232 225 219 217 220 217 211 205 201 200 195 197 214 205 217 246 238 217 218 226 238 248 255 258 258 259 255 246 241 243 245 249 257 259 259 263 260 252 245 240 236 233 229 226 224 222 219 219 219 218 219 220 220 220 219 220 220 220 221 221 221 223 224 226 228 230 231 232 232 232 233 235 237 238 238 239 242 245 245 243 239
212 222 226 225 226 228 226 224 222 222 217 214 209 203 206 208 204 209 200 212 256 228 186 199 217 238 243 249 256 256 259 261 252 243 241 244 247 252 254 253 257 261 259 253 243 237 236 233 229 227 224 222 223 221 219 219 221 222 222 222 222 222 223 224 224 224 224 225 227 229 232 234 235 234 233 232 233 236 239 240 241 243 246 247 243 237
213 222 227 224 224 227 227 227 229 227 220 219 215 211 216 216 211 217 222 215 247 301 177 191 219 241 245 249 254 256 256 258 256 250 246 246 246 248 252 252 254 263 267 262 250 237 235 234 233 231 227 225 225 224 223 222 222 223 224 224 224 224 225 226 227 228 228 228 229 230 232 234 235 235 234 233 233 236 240 241 242 243 245 247 244 236
211 225 231 225 223 228 228 227 225 217 211 212 209 211 219 220 215 220 239 219 234 269 217 203 231 248 256 260 257 254 256 256 256 253 249 249 247 246 251 253 255 265 270 263 252 241 236 235 234 233 231 229 227 225 225 226 226 226 224 225 226 226 226 228 229 230 232 232 233 233 235 236 236 236 235 235 237 239 242 242 242 242 243 246 244 237
211 225 234 227 224 228 226 228 227 219 214 208 204 209 212 214 218 222 232 231 225 252 233 209 233 247 250 257 256 251 251 252 253 252 250 249 245 244 249 252 255 264 267 260 257 256 253 245 238 236 234 233 232 229 227 227 229 228 226 226 226 226 227 229 230 232 233 234 235 236 237 238 238 237 237 238 240 242 243 243 243 244 244 246 245 240
219 225 236 229 228 230 222 219 218 219 220 218 219 218 206 195 204 206 213 233 219 234 256 219 231 244 238 234 241 245 248 252 253 251 250 247 241 240 246 250 254 261 262 260 261 258 251 243 236 235 234 234 234 232 228 226 227 229 228 228 228 227 227 229 230 232 234 234 235 236 237 238 239 239 240 241 243 245 246 246 246 246 246 246 245 241
216 221 227 221 224 225 215 207 203 208 216 220 227 225 211 207 202 197 204 213 209 222 252 231 225 245 247 244 242 240 239 245 253 253 251 248 241 239 243 248 252 255 257 259 260 252 240 230 227 230 232 232 233 233 231 226 225 227 228 228 227 227 226 227 229 231 232 234 235 237 236 236 237 239 240 242 244 246 248 249 249 248 247 246 244 242
213 217 219 210 209 208 205 203 203 206 209 212 216 211 205 210 205 201 211 214 213 224 234 242 249 250 254 257 254 248 240 233 234 243 249 249 245 243 244 248 251 251 254 256 254 251 245 241 239 236 236 236 233 232 232 230 227 226 227 227 226 225 225 226 228 230 230 231 233 235 236 236 237 238 240 242 243 246 248 249 249 248 247 245 243 241
213 213 213 203 201 204 206 210 214 217 218 216 214 208 205 205 195 191 215 215 216 224 219 235 265 266 258 259 261 262 246 235 231 229 235 244 248 249 249 250 250 248 249 251 254 260 264 266 265 255 248 247 241 233 230 230 229 226 226 226 225 225 225 226 228 230 231 232 233 235 235 236 237 238 240 242 243 245 246 247 248 247 245 243 242 240
213 213 213 211 209 208 211 217 221 225 227 225 224 220 214 206 200 200 212 208 209 220 229 240 268 270 269 268 262 259 252 233 228 230 232 236 242 246 247 247 247 245 246 250 256 263 268 269 267 259 252 252 251 243 234 231 230 227 226 226 225 226 226 227 228 229 230 232 234 235 236 236 236 236 238 239 241 243 244 245 246 244 242 241 239 238
211 211 211 215 220 217 214 218 221 225 225 223 225 225 218 212 211 214 221 217 208 210 214 226 254 255 263 283 277 262 245 223 218 227 228 227 227 230 235 237 237 239 242 247 252 256 261 264 262 256 249 244 243 243 239 234 231 228 227 226 226 226 227 228 229 227 227 229 230 232 233 235 235 236 237 239 241 242 242 243 243 242 240 238 236 235
204 206 204 207 217 217 216 221 223 224 224 221 222 223 223 223 221 219 222 224 223 216 210 216 240 242 246 259 253 235 225 223 228 238 239 231 224 222 223 223 225 231 236 243 250 254 255 259 264 264 253 238 231 231 233 233 231 229 227 227 227 226 225 226 228 226 225 226 228 228 230 231 233 235 238 240 242 243 243 243 242 241 239 236 234 233
191 193 194 199 209 208 208 213 214 215 216 220 223 224 226 226 222 220 219 219 223 222 216 220 230 235 234 231 219 200 213 236 246 248 250 242 230 226 224 225 232 240 244 247 253 253 250 257 265 274 276 249 228 226 227 227 228 228 227 226 226 225 225 225 226 225 224 224 225 225 226 228 231 235 238 240 243 244 244 244 243 241 238 235 232 232
181 178 188 205 217 216 202 187 199 210 214 216 220 222 225 226 224 223 220 218 220 222 225 230 232 237 237 229 227 231 236 252 256 249 257 266 261 244 233 234 242 248 250 249 250 251 253 259 265 271 281 266 231 223 225 225 225 225 224 224 223 222 222 223 225 224 223 223 223 223 223 225 230 234 238 241 243 245 246 247 246 243 239 234 231 231
170 167 188 207 219 224 216 194 192 211 220 219 217 219 222 223 224 224 222 223 223 221 232 238 235 238 241 239 238 239 239 246 243 242 258 263 262 255 244 245 249 251 252 249 251 255 255 257 262 266 274 268 234 221 224 226 224 223 223 222 221 220 220 221 222 222 221 221 221 221 220 222 227 232 237 240 242 244 247 248 247 244 240 236 233 231
197 201 213 218 227 229 220 213 215 224 228 226 221 220 221 220 221 224 226 229 229 227 236 243 241 242 245 246 245 245 245 246 242 247 259 258 255 254 250 252 259 269 272 259 254 257 255 254 258 262 267 259 232 219 223 225 223 222 222 221 220 220 219 219 220 220 220 221 222 222 221 221 224 229 234 237 240 243 246 247 247 246 242 238 235 233
246 260 247 241 247 245 224 219 230 240 244 241 231 223 221 220 222 226 227 230 233 235 241 246 247 249 251 252 253 253 254 255 254 258 259 251 247 247 249 259 269 278 284 273 255 250 250 251 254 259 263 254 230 219 221 225 225 223 222 221 220 220 219 218 219 219 220 221 223 223 222 221 223 227 231 235 238 242 245 247 248 247 244 241 238 236
256 262 266 273 275 261 240 226 234 242 249 250 242 232 228 227 227 228 229 230 233 238 242 245 248 251 254 257 258 259 260 259 258 258 255 249 250 255 261 270 277 277 273 263 245 233 236 244 251 258 260 251 230 217 218 223 225 224 223 222 221 221 220 219 219 219 220 222 224 224 223 222 224 227 231 235 238 241 244 247 248 248 246 244 241 239
272 277 282 298 296 273 255 245 247 252 259 259 249 238 234 233 234 234 233 232 234 238 242 243 245 249 254 258 260 262 262 260 259 258 257 257 258 262 267 272 277 275 266 257 245 235 231 235 243 252 256 249 231 217 216 219 222 223 224 223 223 222 221 220 220 220 221 222 223 223 223 223 224 227 231 234 238 241 243 246 248 248 247 246 244 242
274 282 291 297 291 277 264 263 276 283 275 264 252 243 239 238 239 242 240 236 235 239 243 245 247 251 255 259 262 263 262 261 262 262 262 262 262 265 268 271 274 273 269 262 252 246 245 240 240 247 252 248 233 218 214 217 220 222 223 222 222 221 220 220 221 222 223 224 224 226 226 226 226 228 231 234 237 240 241 244 248 250 248 247 245 244
271 276 282 275 276 278 271 275 292 290 265 243 233 238 241 243 245 247 245 241 238 239 244 249 252 254 257 260 262 263 262 262 264 267 269 268 266 265 266 270 274 273 270 265 254 249 252 253 247 247 250 248 237 223 216 215 217 219 219 218 219 220 220 222 224 227 229 230 231 232 232 233 232 232 233 235 237 239 239 241 246 249 250 248 246 244
263 266 267 258 257 272 281 279 272 258 239 208 212 233 235 240 248 248 248 248 246 246 250 254 253 252 254 260 264 264 261 260 261 266 270 269 266 265 266 270 274 272 268 264 254 248 251 255 250 246 249 248 238 226 220 217 216 217 216 217 219 222 223 226 227 230 233 235 236 238 238 238 238 237 237 239 239 240 240 241 243 246 249 249 247 245
251 249 245 243 243 252 262 241 231 252 229 189 210 245 245 239 249 253 253 251 248 249 252 254 255 254 254 257 261 261 257 255 256 258 262 265 265 266 268 269 269 267 264 261 252 246 249 255 252 247 247 245 239 234 227 220 216 216 215 216 220 223 225 228 230 231 233 234 236 238 240 240 241 242 242 242 242 242 241 241 243 244 246 248 247 247
240 234 230 233 234 233 239 243 252 275 278 236 236 256 249 242 248 254 254 249 241 241 246 249 252 254 253 253 254 256 258 259 257 255 255 259 262 263 265 266 265 262 260 257 250 245 247 254 254 250 247 242 238 240 238 229 220 216 215 215 218 222 226 230 234 233 233 233 234 237 240 244 245 248 248 246 243 242 240 240 241 243 245 247 249 248
233 231 229 232 231 227 234 251 261 268 266 250 247 248 244 248 254 260 268 264 246 240 243 245 247 250 251 250 247 248 256 261 259 254 251 255 259 259 260 261 259 257 255 254 249 244 246 252 254 252 249 241 234 235 241 241 229 217 213 213 214 219 228 234 236 235 234 235 236 237 240 242 245 250 254 252 248 245 244 242 242 243 245 247 249 251
228 228 226 227 230 225 222 231 242 244 236 221 221 225 228 240 260 273 283 277 255 245 243 243 244 247 249 248 245 243 249 254 253 248 248 256 259 257 256 256 254 252 250 251 247 244 245 248 248 249 249 243 234 230 236 242 232 215 211 213 215 220 229 234 238 241 241 239 238 238 241 244 245 249 257 259 254 249 248 245 243 243 243 244 248 251
224 225 223 223 227 227 224 231 241 243 237 222 213 217 225 241 270 278 274 270 257 249 246 243 242 243 245 246 244 242 243 248 249 243 246 257 261 259 257 254 252 250 247 247 243 239 240 240 238 242 246 243 235 229 230 232 223 212 210 215 219 224 229 233 238 243 246 246 241 239 243 245 241 244 252 257 254 249 247 245 244 243 243 243 245 247
217 222 223 223 225 225 226 236 245 250 249 240 231 236 253 265 273 258 241 232 234 242 247 247 242 240 241 243 244 243 243 244 244 240 243 253 260 262 259 254 249 249 252 252 242 231 230 232 232 235 240 242 237 231 228 226 220 214 214 217 222 226 231 235 239 242 247 250 246 243 244 242 236 237 244 247 246 245 246 246 246 247 248 249 250 250
205 214 222 224 224 223 226 236 247 255 255 245 235 239 255 262 255 248 252 254 248 244 243 245 241 237 238 242 243 243 241 239 236 236 241 250 255 258 257 254 251 251 254 256 250 234 229 231 234 237 239 242 240 233 228 227 226 224 224 224 226 230 234 239 243 245 247 250 249 246 242 236 232 234 238 239 237 238 240 243 246 248 249 249 250 252
222 216 224 225 222 222 226 233 243 255 257 249 239 237 246 253 254 259 266 264 258 253 243 237 238 237 238 241 242 238 235 232 230 232 239 247 252 253 252 251 251 251 250 251 252 247 237 232 233 236 236 237 239 236 230 226 227 230 232 233 235 237 239 242 246 248 248 249 249 249 244 236 231 232 236 238 239 240 242 245 248 247 245 247 249 252
244 227 231 232 220 217 223 223 221 237 264 255 242 237 240 250 260 269 272 267 262 258 245 235 237 241 241 243 240 236 231 227 226 228 236 245 249 248 245 243 245 246 246 245 248 250 244 237 235 235 234 233 236 238 235 230 228 230 233 236 238 240 241 244 245 247 248 247 246 247 245 239 235 235 238 242 245 248 250 253 254 253 251 252 254 255
238 223 236 242 223 220 228 224 217 220 228 226 232 237 239 246 255 267 276 270 259 253 246 237 235 238 240 241 239 235 230 226 224 225 232 240 242 239 236 235 236 237 238 240 242 242 239 239 239 237 235 234 235 236 235 232 231 231 233 237 240 242 245 248 249 250 251 251 249 247 246 243 242 244 247 250 252 254 255 256 257 258 258 257 257 255
242 240 253 259 243 235 236 228 221 223 224 216 224 235 238 242 249 260 275 275 257 245 240 237 234 233 232 233 235 232 227 225 225 223 226 231 231 228 227 227 228 228 228 230 231 229 228 232 235 235 232 230 231 232 232 232 233 234 237 240 243 246 249 252 254 255 255 255 255 254 253 252 252 254 257 259 260 260 258 257 257 257 258 259 258 255
256 258 265 267 261 254 246 231 223 227 231 222 223 231 237 242 246 253 269 277 260 241 232 230 230 229 225 225 227 225 222 222 223 224 223 221 219 218 218 218 218 218 218 218 219 220 221 223 225 227 226 225 226 228 230 232 235 237 240 243 245 248 251 253 255 257 257 258 258 259 259 259 259 261 262 264 265 265 263 261 260 259 259 260 259 257
272 275 274 268 262 258 251 234 221 225 230 224 221 229 237 242 245 248 259 274 270 248 230 223 222 222 222 221 220 219 218 218 219 222 219 213 209 209 209 209 209 209 209 209 209 211 214 216 217 220 222 224 227 229 232 236 239 242 245 248 250 252 255 256 259 261 262 263 264 264 265 264 264 265 266 267 268 269 268 267 266 265 264 264 263 260
277 276 271 271 269 259 247 230 216 217 222 218 219 226 233 239 244 246 248 263 276 260 234 223 218 215 216 216 216 217 214 206 204 208 207 204 202 202 202 203 203 204 205 206 207 210 212 215 218 221 224 227 231 234 237 240 243 246 249 252 254 256 258 259 261 263 264 266 266 266 267 267 266 266 267 267 267 268 268 269 269 268 268 267 266 263
275 274 272 278 275 255 236 225 222 227 231 222 221 230 235 235 241 243 242 254 273 261 227 215 208 201 198 197 200 205 203 194 190 193 196 197 197 197 198 198 200 202 204 206 209 212 215 218 221 224 227 231 234 237 241 243 246 249 251 253 255 257 258 259 260 261 262 263 264 264 265 265 264 263 263 263 262 263 263 264 266 267 267 267 266 265
275 274 273 273 262 242 228 225 229 234 236 225 224 242 248 243 243 242 238 248 266 252 214 199 191 187 185 184 184 188 190 189 187 188 190 193 193 194 196 196 197 200 203 205 209 213 217 221 225 228 232 236 239 242 246 248 251 253 255 257 258 259 260 260 259 258 258 258 258 258 258 259 259 259 259 259 260 261 262 263 264 266 268 268 268 268
Height
3122 3121 3118 3116 3118 3122 3125 3129 3132 3134 3138 3140 3142 3144 3144 3145 3145 3145 3148 3149 3150 3151 3150 3150 3150 3150 3151 3151 3151 3151 3151 3151 3153 3155 3157 3159 3160 3161 3163 3165 3166 3168 3169 3170 3171 3172 3173 3174 3176 3177 3178 3180 3182 3183 3185 3186 3188 3190 3192 3193 3195 3197 3199 3200 3202 3203 3205 3206 3208 3209 3211 3212 3213 3214 3215 3216 3217 3218 3219 3220 3221 3222 3223 3224 3225 3226
3119 3115 3111 3114 3119 3123 3127 3130 3132 3134 3137 3139 3140 3142 3143 3142 3142 3143 3145 3147 3149 3149 3148 3148 3148 3147 3149 3149 3149 3149 3148 3149 3150 3152 3154 3156 3158 3159 3161 3163 3165 3166 3168 3168 3169 3170 3171 3172 3174 3175 3176 3178 3179 3181 3183 3185 3187 3189 3190 3192 3194 3196 3197 3199 3201 3202 3204 3206 3207 3209 3210 3212 3213 3214 3215 3216 3216 3217 3218 3219 3220 3221 3222 3223 3224 3225
3114 3108 3108 3114 3119 3123 3127 3129 3131 3133 3135 3137 3138 3140 3140 3139 3140 3142 3144 3145 3148 3147 3146 3146 3146 3144 3146 3147 3147 3147 3146 3147 3148 3149 3151 3153 3155 3157 3159 3161 3163 3164 3165 3166 3167 3168 3169 3170 3171 3173 3174 3175 3177 3179 3181 3183 3185 3187 3188 3191 3192 3194 3196 3198 3200 3202 3203 3205 3207 3208 3209 3210 3212 3212 3213 3214 3215 3216 3216 3217 3218 3220 3221 3222 3223 3224
3108 3105 3107 3114 3118 3122 3124 3126 3129 3130 3132 3133 3135 3136 3135 3135 3139 3141 3142 3143 3145 3145 3145 3145 3143 3141 3143 3144 3143 3144 3145 3146 3146 3147 3148 3150 3152 3155 3157 3159 3160 3162 3163 3165 3166 3166 3167 3168 3169 3170 3172 3174 3176 3177 3179 3181 3183 3185 3187 3189 3191 3193 3195 3197 3198 3201 3202 3204 3205 3206 3208 3209 3210 3211 3211 3212 3213 3214 3215 3216 3217 3218 3220 3221 3222 3223
3104 3103 3106 3112 3116 3119 3122 3123 3125 3127 3128 3129 3130 3131 3131 3134 3136 3139 3141 3142 3143 3144 3143 3144 3142 3138 3139 3141 3140 3142 3143 3144 3144 3144 3145 3146 3148 3152 3154 3156 3158 3160 3162 3163 3164 3165 3165 3166 3167 3168 3170 3172 3173 3175 3177 3179 3181 3183 3186 3188 3190 3192 3194 3196 3198 3199 3200 3202 3203 3204 3206 3207 3208 3209 3210 3211 3212 3213 3214 3215 3216 3217 3219 3220 3221 3222
3103 3104 3106 3110 3113 3116 3119 3119 3121 3124 3125 3126 3126 3127 3130 3133 3135 3138 3140 3141 3143 3143 3142 3144 3142 3135 3135 3137 3137 3139 3141 3141 3142 3142 3142 3143 3146 3148 3150 3152 3156 3158 3160 3161 3163 3164 3164 3165 3166 3167 3168 3170 3171 3173 3175 3177 3180 3182 3184 3187 3188 3190 3192 3194 3196 3198 3199 3200 3202 3203 3204 3206 3207 3208 3209 3211 3212 3213 3214 3215 3216 3216 3217 3218 3220 3221
3100 3102 3105 3108 3110 3113 3115 3116 3117 3121 3124 3123 3122 3125 3129 3132 3134 3137 3139 3141 3142 3141 3140 3143 3142 3135 3131 3133 3135 3136 3137 3139 3140 3139 3140 3142 3143 3144 3147 3149 3152 3155 3157 3159 3160 3161 3162 3163 3164 3165 3166 3168 3169 3172 3174 3176 3178 3180 3183 3185 3186 3188 3191 3193 3194 3196 3197 3199 3200 3202 3204 3205 3206 3208 3209 3210 3211 3212 3213 3214 3214 3215 3216 3217 3218 3219
3095 3100 3103 3105 3108 3110 3111 3111 3114 3118 3122 3120 3120 3124 3128 3130 3133 3135 3137 3139 3139 3139 3138 3139 3141 3137 3128 3126 3130 3134 3134 3135 3136 3136 3137 3139 3140 3141 3144 3146 3149 3152 3155 3156 3158 3159 3160 3161 3162 3163 3165 3166 3169 3171 3173 3174 3176 3179 3181 3183 3185 3187 3189 3190 3192 3194 3195 3197 3199 3201 3202 3204 3205 3207 3208 3209 3210 3211 3212 3212 3213 3214 3214 3215 3216 3218
3092 3097 3098 3101 3105 3106 3106 3108 3111 3116 3119 3118 3119 3124 3127 3130 3132 3133 3136 3137 3137 3138 3134 3134 3139 3137 3125 3120 3125 3130 3131 3132 3132 3134 3135 3136 3137 3139 3141 3144 3146 3149 3152 3154 3156 3157 3158 3159 3160 3162 3163 3166 3168 3169 3171 3173 3175 3177 3179 3181 3183 3185 3187 3188 3190 3192 3194 3196 3198 3199 3201 3202 3204 3205 3206 3207 3209 3210 3210 3211 3212 3212 3213 3214 3215 3216
3090 3095 3097 3100 3101 3101 3103 3107 3110 3114 3116 3117 3120 3123 3126 3129 3130 3133 3134 3135 3137 3133 3128 3129 3134 3133 3122 3116 3121 3124 3125 3127 3128 3131 3133 3134 3136 3137 3139 3141 3143 3146 3149 3151 3153 3154 3156 3158 3159 3160 3162 3164 3166 3167 3169 3171 3173 3175 3177 3179 3180 3183 3185 3186 3188 3190 3192 3194 3196 3197 3199 3201 3202 3204 3205 3206 3207 3208 3209 3210 3210 3211 3212 3213 3214 3215
3089 3093 3096 3097 3098 3100 3103 3106 3108 3112 3115 3117 3120 3123 3126 3127 3129 3131 3131 3134 3134 3124 3121 3126 3130 3132 3121 3109 3113 3118 3119 3123 3126 3129 3131 3132 3134 3135 3136 3138 3140 3143 3145 3147 3150 3152 3154 3155 3157 3158 3159 3161 3163 3165 3167 3168 3170 3172 3173 3176 3178 3180 3182 3184 3186 3188 3190 3192 3194 3196 3198 3199 3201 3202 3203 3204 3206 3207 3208 3209 3210 3210 3211 3212 3213 3214
3088 3091 3092 3093 3096 3100 3102 3104 3107 3110 3113 3116 3119 3122 3125 3125 3127 3129 3129 3133 3128 3116 3117 3122 3126 3131 3120 3104 3106 3113 3116 3121 3124 3126 3128 3130 3131 3133 3134 3136 3138 3140 3142 3144 3147 3149 3151 3152 3154 3155 3156 3158 3160 3161 3163 3165 3167 3169 3170 3173 3175 3177 3179 3181 3184 3186 3188 3190 3192 3194 3196 3198 3199 3200 3202 3203 3204 3205 3206 3208 3209 3209 3210 3211 3211 3212
3085 3087 3088 3090 3094 3096 3099 3101 3104 3106 3109 3113 3115 3118 3121 3122 3124 3125 3124 3124 3119 3113 3116 3120 3123 3123 3110 3101 3104 3109 3112 3117 3120 3123 3125 3127 3129 3130 3132 3133 3135 3137 3139 3141 3143 3145 3148 3149 3150 3152 3154 3156 3157 3158 3161 3163 3164 3166 3168 3170 3172 3174 3177 3179 3181 3183 3185 3187 3189 3192 3194 3196 3197 3198 3200 3201 3202 3204 3205 3206 3207 3208 3209 3209 3210 3211
3082 3084 3086 3088 3089 3091 3094 3095 3097 3099 3103 3106 3109 3112 3114 3115 3118 3118 3117 3116 3114 3113 3114 3118 3123 3114 3102 3101 3103 3105 3110 3113 3117 3120 3122 3124 3126 3128 3130 3131 3133 3134 3136 3137 3139 3142 3144 3145 3147 3149 3151 3153 3154 3156 3158 3160 3162 3163 3165 3167 3169 3172 3174 3177 3179 3181 3183 3185 3187 3190 3192 3194 3195 3196 3198 3199 3200 3202 3203 3204 3205 3206 3207 3208 3209 3210
3076 3077 3077 3080 3082 3084 3087 3090 3092 3095 3099 3102 3105 3108 3108 3107 3109 3110 3110 3111 3111 3111 3112 3117 3117 3105 3097 3099 3100 3103 3108 3110 3113 3117 3119 3122 3124 3125 3127 3128 3130 3131 3133 3134 3136 3138 3140 3142 3145 3146 3149 3151 3152 3154 3156 3157 3159 3161 3163 3164 3166 3169 3171 3174 3176 3178 3181 3183 3185 3188 3189 3191 3193 3194 3196 3197 3198 3199 3201 3202 3203 3204 3205 3206 3207 3208
3070 3069 3069 3074 3078 3080 3084 3087 3091 3095 3098 3099 3102 3106 3104 3102 3104 3107 3107 3108 3109 3110 3110 3111 3105 3095 3095 3097 3098 3102 3105 3106 3111 3113 3116 3119 3120 3123 3124 3125 3127 3128 3129 3131 3132 3134 3136 3139 3142 3144 3146 3148 3149 3152 3153 3155 3156 3157 3159 3162 3164 3167 3169 3171 3173 3176 3178 3181 3183 3185 3187 3189 3190 3192 3193 3195 3196 3197 3199 3200 3201 3202 3203 3204 3205 3206
3067 3067 3068 3073 3076 3078 3082 3084 3087 3091 3093 3095 3098 3099 3097 3099 3104 3108 3107 3107 3109 3108 3104 3103 3099 3094 3095 3095 3095 3100 3102 3104 3107 3109 3113 3115 3117 3120 3121 3122 3125 3125 3126 3128 3129 3131 3133 3135 3138 3140 3143 3144 3146 3148 3150 3152 3154 3155 3157 3159 3161 3164 3166 3168 3170 3173 3175 3178 3180 3182 3184 3186 3187 3189 3191 3192 3194 3195 3196 3197 3198 3199 3200 3201 3202 3203
3064 3065 3066 3070 3073 3076 3079 3083 3086 3088 3089 3091 3093 3092 3095 3101 3105 3107 3106 3106 3106 3104 3099 3097 3095 3094 3095 3092 3092 3096 3098 3100 3103 3106 3109 3112 3114 3116 3118 3120 3122 3122 3124 3125 3126 3128 3130 3132 3134 3136 3139 3141 3143 3145 3147 3150 3152 3153 3156 3157 3159 3162 3164 3166 3168 3170 3172 3174 3177 3179 3181 3183 3184 3186 3188 3190 3191 3193 3194 3194 3196 3197 3198 3199 3200 3201
3062 3064 3065 3067 3071 3073 3076 3080 3083 3085 3087 3089 3089 3089 3093 3097 3099 3101 3103 3101 3101 3100 3095 3093 3092 3091 3089 3088 3089 3093 3095 3097 3100 3103 3106 3108 3111 3113 3115 3117 3119 3120 3121 3122 3124 3125 3126 3129 3130 3133 3135 3138 3140 3143 3145 3147 3149 3151 3153 3155 3157 3159 3162 3164 3166 3168 3169 3171 3174 3176 3178 3180 3181 3183 3185 3187 3188 3189 3190 3192 3193 3194 3195 3196 3197 3198
3059 3063 3064 3065 3069 3072 3073 3075 3077 3079 3083 3086 3087 3087 3090 3092 3092 3094 3096 3095 3096 3096 3093 3091 3089 3082 3079 3083 3088 3091 3094 3096 3098 3100 3102 3105 3108 3110 3112 3115 3116 3117 3119 3120 3122 3123 3124 3126 3127 3129 3132 3134 3137 3139 3142 3145 3146 3148 3151 3153 3155 3157 3159 3161 3163 3165 3167 3169 3171 3173 3175 3177 3178 3180 3181 3183 3185 3186 3187 3189 3190 3191 3193 3194 3194 3195
3058 3060 3061 3063 3066 3067 3067 3068 3071 3074 3077 3079 3082 3083 3085 3088 3090 3091 3091 3091 3093 3093 3091 3090 3084 3076 3075 3081 3085 3088 3091 3095 3097 3098 3100 3102 3105 3108 3110 3112 3114 3115 3116 3118 3119 3121 3122 3124 3125 3127 3129 3131 3133 3136 3139 3141 3143 3145 3148 3149 3152 3154 3156 3158 3160 3162 3164 3166 3168 3170 3172 3174 3175 3177 3178 3180 3181 3182 3183 3185 3187 3188 3190 3191 3191 3192
3054 3056 3058 3061 3062 3062 3063 3066 3070 3072 3072 3073 3075 3077 3079 3083 3086 3088 3087 3087 3089 3089 3088 3087 3080 3073 3075 3080 3083 3087 3089 3091 3094 3096 3098 3100 3102 3105 3107 3109 3111 3113 3114 3115 3117 3119 3119 3121 3122 3124 3125 3127 3130 3132 3135 3137 3139 3142 3144 3146 3149 3151 3153 3155 3157 3159 3162 3164 3165 3167 3169 3170 3172 3174 3175 3176 3177 3178 3180 3181 3183 3185 3186 3187 3188 3190
3049 3052 3055 3058 3059 3060 3062 3065 3068 3069 3069 3071 3071 3072 3076 3079 3080 3082 3080 3080 3085 3085 3085 3087 3080 3071 3073 3078 3082 3085 3088 3090 3092 3093 3096 3098 3100 3102 3104 3106 3108 3110 3112 3113 3115 3116 3117 3118 3119 3120 3121 3123 3125 3127 3130 3132 3135 3138 3141 3143 3145 3147 3150 3152 3155 3157 3159 3161 3163 3164 3166 3167 3169 3170 3171 3172 3173 3174 3176 3178 3180 3181 3183 3184 3185 3186
3046 3049 3052 3055 3057 3060 3063 3065 3065 3066 3066 3068 3068 3069 3072 3072 3074 3077 3076 3077 3081 3081 3083 3085 3078 3070 3073 3077 3080 3083 3086 3088 3090 3092 3094 3095 3097 3099 3101 3103 3106 3108 3110 3111 3112 3113 3114 3115 3116 3117 3117 3119 3121 3123 3125 3128 3131 3134 3137 3140 3142 3144 3147 3150 3152 3154 3156 3158 3160 3162 3163 3164 3166 3167 3167 3168 3170 3171 3173 3174 3176 3178 3179 3181 3182 3183
3043 3046 3049 3052 3055 3058 3061 3062 3061 3061 3062 3062 3064 3066 3067 3069 3072 3074 3075 3076 3076 3075 3078 3079 3072 3069 3073 3076 3079 3082 3084 3087 3089 3090 3092 3093 3094 3096 3098 3100 3103 3105 3107 3108 3109 3110 3111 3112 3113 3114 3115 3116 3118 3120 3121 3124 3126 3129 3132 3135 3138 3141 3144 3146 3149 3151 3153 3155 3157 3158 3160 3161 3162 3163 3164 3165 3166 3168 3170 3171 3172 3174 3176 3177 3178 3179
3040 3042 3044 3046 3047 3049 3051 3051 3051 3054 3056 3057 3059 3062 3063 3066 3069 3070 3072 3073 3070 3071 3073 3071 3067 3070 3073 3076 3080 3082 3084 3086 3088 3089 3090 3091 3093 3095 3096 3098 3100 3102 3104 3105 3106 3107 3108 3108 3109 3111 3112 3113 3114 3116 3118 3120 3122 3125 3128 3131 3134 3137 3140 3143 3145 3147 3150 3152 3153 3155 3156 3158 3159 3160 3161 3163 3164 3165 3167 3168 3169 3171 3172 3174 3175 3176
3039 3040 3041 3041 3041 3042 3043 3044 3047 3050 3051 3053 3055 3058 3060 3062 3065 3067 3068 3066 3065 3069 3068 3064 3067 3071 3072 3075 3079 3081 3083 3085 3086 3088 3089 3090 3092 3093 3095 3097 3098 3099 3101 3102 3102 3103 3104 3105 3106 3108 3109 3110 3110 3112 3114 3116 3119 3121 3124 3127 3130 3133 3136 3139 3141 3144 3146 3148 3150 3151 3153 3154 3156 3157 3159 3160 3161 3163 3164 3165 3166 3167 3169 3170 3171 3172
3037 3038 3039 3039 3040 3040 3041 3043 3046 3047 3047 3049 3052 3054 3056 3059 3061 3063 3062 3061 3064 3067 3061 3060 3067 3069 3068 3073 3077 3079 3082 3084 3085 3088 3088 3089 3090 3091 3093 3095 3096 3097 3098 3099 3099 3100 3101 3102 3103 3105 3106 3107 3107 3109 3111 3113 3116 3118 3121 3124 3126 3129 3132 3135 3137 3140 3142 3144 3146 3147 3149 3151 3153 3155 3156 3157 3159 3160 3160 3161 3162 3164 3165 3166 3167 3168
3037 3037 3038 3038 3039 3039 3040 3043 3044 3044 3045 3047 3048 3050 3052 3055 3056 3057 3059 3060 3061 3061 3056 3059 3066 3065 3065 3070 3073 3076 3080 3082 3084 3085 3087 3088 3089 3090 3091 3093 3094 3095 3096 3096 3097 3098 3099 3100 3101 3102 3104 3104 3105 3106 3108 3110 3112 3115 3117 3120 3123 3125 3128 3131 3133 3136 3138 3140 3142 3143 3146 3148 3150 3151 3153 3154 3155 3156 3157 3158 3159 3160 3162 3162 3163 3165
3036 3037 3036 3037 3037 3038 3039 3041 3041 3042 3043 3043 3044 3046 3047 3050 3051 3052 3054 3056 3057 3057 3057 3060 3062 3060 3062 3067 3069 3073 3078 3079 3081 3083 3084 3086 3087 3088 3089 3090 3091 3093 3094 3095 3096 3096 3097 3098 3099 3100 3101 3102 3102 3103 3105 3107 3109 3111 3113 3116 3119 3121 3124 3126 3129 3131 3134 3135 3138 3140 3143 3145 3147 3148 3149 3150 3152 3153 3154 3155 3156 3157 3158 3159 3160 3161
3035 3036 3035 3035 3036 3037 3038 3039 3040 3040 3039 3039 3040 3042 3044 3045 3047 3048 3049 3052 3053 3054 3056 3058 3058 3055 3058 3063 3067 3070 3074 3076 3077 3079 3081 3083 3084 3085 3086 3087 3089 3090 3091 3093 3094 3093 3094 3095 3096 3097 3098 3099 3100 3100 3102 3104 3106 3108 3110 3112 3115 3118 3120 3122 3125 3127 3129 3132 3134 3136 3139 3141 3143 3144 3146 3147 3148 3150 3150 3151 3153 3154 3155 3156 3157 3158
3034 3034 3034 3035 3036 3035 3036 3038 3037 3037 3037 3036 3036 3038 3040 3041 3042 3043 3046 3048 3050 3052 3053 3054 3052 3051 3055 3062 3065 3067 3070 3072 3073 3075 3077 3078 3080 3082 3083 3084 3086 3087 3088 3089 3090 3091 3091 3092 3093 3094 3095 3097 3097 3097 3099 3101 3103 3105 3107 3110 3112 3114 3117 3119 3121 3124 3126 3128 3130 3132 3135 3137 3139 3140 3142 3144 3145 3146 3147 3148 3149 3150 3152 3153 3154 3155
3033 3033 3034 3035 3035 3034 3035 3036 3036 3036 3035 3033 3032 3034 3036 3037 3038 3041 3042 3044 3047 3049 3050 3049 3049 3051 3056 3060 3062 3064 3067 3068 3069 3071 3073 3074 3076 3078 3079 3080 3082 3083 3084 3085 3086 3087 3088 3089 3090 3091 3092 3094 3095 3095 3097 3098 3100 3102 3105 3107 3109 3111 3114 3116 3118 3121 3123 3125 3127 3129 3131 3134 3135 3137 3139 3140 3141 3143 3144 3144 3145 3146 3148 3149 3151 3151
3031 3032 3033 3034 3034 3033 3033 3034 3036 3035 3032 3028 3028 3030 3032 3034 3036 3036 3037 3040 3043 3045 3046 3047 3049 3052 3054 3057 3059 3060 3063 3065 3066 3068 3069 3070 3072 3074 3075 3077 3078 3079 3080 3081 3082 3083 3084 3085 3087 3088 3089 3090 3091 3093 3093 3095 3097 3100 3102 3104 3106 3109 3111 3114 3116 3118 3120 3122 3124 3126 3128 3130 3132 3134 3135 3136 3137 3138 3139 3140 3141 3142 3144 3145 3147 3147
3029 3030 3031 3032 3032 3032 3032 3035 3035 3030 3025 3024 3026 3027 3029 3031 3032 3032 3034 3037 3040 3042 3044 3046 3047 3049 3051 3054 3056 3057 3059 3061 3062 3064 3065 3067 3068 3070 3071 3073 3074 3076 3076 3077 3078 3079 3080 3082 3083 3084 3086 3087 3088 3089 3090 3092 3094 3096 3098 3101 3103 3106 3108 3111 3113 3115 3117 3119 3120 3122 3124 3126 3128 3130 3131 3132 3133 3134 3135 3136 3136 3137 3139 3140 3142 3143
3027 3028 3029 3030 3030 3031 3032 3032 3028 3022 3019 3022 3024 3025 3027 3028 3029 3029 3031 3034 3037 3040 3041 3042 3044 3047 3049 3051 3053 3054 3055 3056 3057 3059 3061 3063 3065 3067 3068 3069 3071 3072 3072 3073 3074 3075 3077 3078 3079 3081 3082 3083 3084 3085 3087 3089 3091 3093 3095 3098 3100 3103 3105 3107 3109 3111 3113 3115 3116 3118 3120 3122 3124 3125 3126 3128 3128 3129 3130 3131 3132 3133 3134 3135 3137 3138
3024 3026 3027 3028 3027 3028 3029 3027 3022 3019 3019 3020 3021 3024 3025 3025 3026 3027 3027 3030 3033 3036 3036 3038 3041 3043 3046 3048 3050 3051 3052 3052 3052 3053 3056 3059 3061 3063 3065 3066 3067 3068 3069 3070 3071 3072 3074 3075 3076 3077 3078 3079 3081 3082 3084 3086 3087 3089 3091 3094 3096 3099 3101 3103 3105 3107 3109 3111 3113 3114 3116 3118 3119 3120 3122 3123 3123 3124 3125 3127 3128 3129 3130 3131 3132 3133
3020 3022 3024 3025 3024 3024 3027 3025 3020 3019 3017 3017 3019 3022 3023 3023 3023 3023 3023 3025 3029 3031 3032 3034 3037 3040 3043 3045 3047 3048 3049 3048 3047 3049 3053 3056 3058 3060 3061 3063 3064 3065 3066 3067 3068 3069 3071 3073 3074 3075 3076 3077 3078 3080 3081 3082 3084 3086 3088 3090 3093 3095 3097 3099 3102 3104 3106 3107 3108 3110 3112 3113 3115 3116 3118 3118 3119 3120 3121 3122 3124 3125 3125 3126 3127 3128
3016 3018 3021 3022 3021 3021 3022 3020 3016 3014 3014 3015 3017 3020 3021 3021 3021 3021 3021 3021 3023 3027 3029 3031 3034 3038 3040 3042 3043 3044 3045 3043 3044 3048 3052 3053 3054 3056 3058 3059 3061 3062 3063 3064 3065 3067 3068 3070 3071 3072 3073 3075 3076 3077 3078 3079 3080 3083 3085 3087 3089 3091 3093 3096 3098 3100 3101 3102 3104 3105 3106 3108 3111 3113 3114 3114 3115 3116 3117 3118 3119 3120 3120 3121 3122 3123
3011 3013 3015 3016 3016 3016 3017 3015 3011 3010 3010 3013 3017 3018 3019 3019 3019 3020 3020 3017 3018 3022 3025 3027 3031 3034 3037 3038 3039 3040 3040 3040 3044 3048 3050 3050 3051 3053 3054 3056 3058 3059 3060 3061 3062 3064 3066 3067 3069 3070 3071 3072 3073 3074 3075 3076 3077 3079 3082 3084 3086 3088 3090 3092 3094 3095 3096 3097 3099 3100 3102 3104 3107 3109 3111 3111 3112 3112 3113 3113 3114 3115 3115 3116 3117 3118
3008 3009 3010 3010 3011 3013 3014 3012 3009 3007 3006 3011 3016 3017 3017 3018 3019 3018 3016 3014 3017 3020 3021 3024 3028 3030 3032 3034 3035 3036 3037 3040 3043 3045 3047 3048 3049 3050 3051 3053 3055 3057 3058 3059 3060 3061 3063 3065 3066 3067 3069 3070 3071 3072 3073 3074 3075 3076 3078 3080 3082 3084 3086 3088 3089 3091 3092 3094 3095 3097 3099 3101 3103 3106 3107 3108 3108 3109 3109 3109 3110 3110 3111 3112 3112 3113
3006 3006 3007 3006 3007 3010 3011 3009 3008 3005 3003 3008 3015 3016 3015 3017 3016 3013 3012 3013 3016 3018 3019 3022 3025 3026 3028 3030 3031 3033 3035 3037 3040 3041 3043 3045 3046 3047 3049 3050 3052 3054 3055 3057 3058 3059 3060 3062 3063 3065 3066 3067 3069 3070 3071 3072 3073 3075 3076 3078 3079 3081 3082 3084 3086 3087 3089 3090 3092 3093 3095 3097 3099 3101 3102 3102 3103 3104 3104 3105 3105 3105 3106 3107 3107 3108
3003 3004 3003 3003 3004 3007 3008 3007 3006 3003 3000 3005 3013 3014 3013 3013 3012 3010 3012 3013 3013 3014 3018 3020 3022 3024 3025 3026 3028 3030 3031 3033 3036 3037 3039 3041 3043 3045 3046 3047 3049 3050 3052 3054 3055 3056 3058 3059 3060 3062 3063 3065 3066 3067 3069 3070 3071 3072 3074 3075 3077 3078 3079 3081 3082 3084 3085 3087 3088 3089 3091 3092 3094 3096 3096 3097 3098 3099 3099 3100 3100 3101 3101 3102 3102 3103
3000 3001 3000 3000 3001 3003 3002 3000 3000 3000 3000 3005 3010 3010 3010 3010 3009 3009 3011 3012 3011 3012 3015 3017 3019 3021 3022 3023 3025 3026 3027 3029 3031 3033 3035 3038 3040 3042 3043 3044 3046 3047 3049 3051 3052 3054 3055 3056 3057 3059 3060 3062 3063 3065 3066 3067 3068 3070 3071 3072 3074 3075 3076 3078 3079 3080 3082 3083 3084 3085 3087 3088 3090 3091 3092 3093 3094 3094 3095 3095 3096 3096 3097 3097 3098 3098
2997 2997 2997 2996 2996 2996 2994 2993 2996 2999 3000 3003 3006 3007 3008 3008 3007 3008 3009 3010 3010 3010 3011 3014 3016 3017 3019 3020 3021 3022 3024 3025 3027 3029 3031 3034 3036 3039 3040 3042 3043 3045 3046 3048 3049 3051 3052 3053 3054 3056 3057 3058 3060 3061 3062 3064 3065 3066 3068 3069 3071 3072 3073 3075 3076 3077 3079 3080 3081 3082 3083 3084 3086 3087 3088 3088 3089 3089 3090 3090 3090 3091 3091 3092 3092 3092
2993 2993 2993 2992 2992 2991 2989 2990 2995 2998 2999 3001 3003 3005 3005 3005 3005 3006 3007 3007 3008 3008 3009 3011 3012 3014 3015 3017 3018 3019 3020 3022 3023 3025 3027 3030 3033 3035 3037 3039 3040 3042 3043 3045 3046 3048 3049 3051 3052 3053 3055 3056 3057 3058 3059 3061 3062 3063 3065 3066 3067 3069 3070 3071 3073 3074 3075 3076 3077 3078 3079 3080 3081 3082 3082 3083 3083 3083 3084 3084 3084 3085 3085 3085 3085 3085
2990 2991 2990 2989 2990 2989 2987 2989 2994 2996 2998 3000 3001 3002 3003 3002 3002 3004 3005 3005 3005 3005 3006 3007 3009 3010 3012 3013 3014 3016 3017 3019 3021 3023 3024 3027 3030 3032 3034 3036 3037 3039 3040 3042 3043 3045 3047 3048 3050 3051 3053 3054 3055 3056 3057 3058 3059 3061 3062 3063 3064 3066 3067 3068 3069 3070 3071 3072 3073 3073 3074 3075 3076 3076 3077 3077 3077 3077 3078 3078 3078 3078 3078 3078 3078 3077
2989 2988 2987 2987 2987 2986 2985 2987 2991 2993 2994 2996 2997 2998 2999 2999 2999 3001 3003 3004 3003 3003 3003 3004 3005 3007 3008 3009 3011 3013 3014 3016 3019 3021 3023 3026 3028 3029 3031 3033 3035 3037 3038 3039 3041 3042 3044 3046 3047 3049 3050 3052 3053 3054 3055 3056 3057 3058 3059 3060 3061 3062 3063 3064 3065 3066 3067 3068 3068 3069 3070 3070 3071 3071 3071 3072 3072 3072 3072 3072 3072 3071 3071 3072 3072 3070
2987 2985 2984 2984 2983 2982 2982 2985 2989 2990 2991 2993 2994 2995 2996 2997 2997 2998 3001 3003 3003 3002 3001 3001 3002 3003 3004 3006 3008 3010 3011 3014 3018 3020 3023 3025 3026 3028 3029 3031 3032 3034 3035 3037 3038 3039 3041 3043 3044 3046 3047 3048 3050 3051 3052 3053 3054 3055 3056 3057 3058 3059 3060 3061 3061 3062 3063 3063 3064 3065 3065 3065 3066 3066 3066 3066 3066 3066 3066 3066 3066 3065 3064 3065 3064 3063
2983 2981 2981 2981 2978 2977 2979 2984 2987 2988 2987 2989 2992 2993 2993 2994 2995 2996 2999 3001 3002 3001 3000 2999 2999 3000 3002 3004 3006 3008 3010 3012 3016 3018 3021 3022 3024 3026 3027 3028 3030 3031 3033 3034 3035 3036 3038 3039 3041 3042 3044 3045 3046 3047 3048 3050 3051 3052 3053 3054 3054 3055 3056 3057 3058 3058 3059 3059 3060 3060 3060 3061 3061 3061 3061 3060 3060 3060 3059 3059 3058 3057 3057 3057 3057 3056
2978 2976 2977 2976 2973 2972 2976 2981 2984 2984 2984 2986 2989 2991 2991 2992 2992 2994 2997 3000 3001 3001 3000 2999 2998 2999 3001 3003 3005 3006 3008 3011 3014 3016 3018 3019 3021 3023 3024 3026 3027 3028 3030 3031 3032 3034 3035 3036 3038 3039 3040 3041 3043 3044 3045 3046 3047 3048 3049 3049 3050 3051 3051 3052 3053 3053 3054 3054 3055 3055 3055 3055 3054 3054 3054 3053 3052 3052 3051 3051 3051 3051 3050 3049 3048 3048